sat.trackr.live / text

‹ back to catalog

STARLINK-30389

NORAD 57783 · 2023-134N

PAYLOAD ACTIVE UNKNOWN

§ Identity

Operator
Country
US
Launch date
2023-09-04
Launch site
AFETR
Launch vehicle
Mass (kg)
RCS (m²)

Purposes: comms

External: N2YO · Heavens-Above · Gunter

§ Orbital elements

Epoch: 2026-05-25T05:02:28.497984Z

Period
94.27 min
Inclination
43.0032°
Eccentricity
0.0001403
Mean motion
15.27578876 rev/d
Perigee alt
482.1 km
Apogee alt
484.0 km
Semi-major
6,861.2 km
B*
1.1250e-4
RAAN
125.4026°
Arg perigee
271.7798°
Mean anomaly
88.2893°
Rev number
15,117

§ Raw data

STARLINK-303891 57783U 23134N   26145.21005206  .00002835  00000+0  11250-3 0  99962 57783  43.0032 125.4026 0001403 271.7798  88.2893 15.27578876151172

JSON: /api/v1/satellites/57783 · /tle

For live sub-satellite position, see the globe view (requires WebGL).

§ Visibility from observer

Set your observer location to see the next 7 days of passes ≥ 10°. The values pass through the URL so the page stays shareable.

No JS? Fill the form by hand. The geolocation button needs JavaScript.